| time (UTC) | temp F | wind direction | speed MPH | gust MPH | rain 1hr in | rain 24hr in | rain mn in | humidity % | barometer mb |
| 20260906183046 | 75 | 194 | 5.0 | 10.0 | 0.00 | 0.00 | 0.00 | 86 | 1014.6 |
| 20260906182520 | 75 | 206 | 3.0 | 10.0 | 0.00 | 0.00 | 0.00 | 86 | 1014.5 |
| 20260906182018 | 75 | 209 | 4.0 | 10.0 | 0.00 | 0.00 | 0.00 | 85 | 1014.5 |
| 20260906181540 | 75 | 182 | 4.0 | 11.0 | 0.00 | 0.00 | 0.00 | 85 | 1014.5 |
| 20260906181018 | 75 | 134 | 7.0 | 11.0 | 0.00 | 0.00 | 0.00 | 85 | 1014.5 |
| 20260906180520 | 75 | 129 | 6.0 | 12.0 | 0.00 | 0.00 | 0.00 | 85 | 1014.6 |
| 20260906180042 | 75 | 144 | 6.0 | 12.0 | 0.00 | 0.00 | 0.00 | 86 | 1014.5 |
| 20260906175517 | 75 | 139 | 8.0 | 12.0 | 0.00 | 0.00 | 0.00 | 85 | 1014.4 |
| 20260906175019 | 75 | 132 | 7.0 | 11.0 | 0.00 | 0.00 | 0.00 | 85 | 1014.5 |
| 20260906174542 | 75 | 127 | 6.0 | 12.0 | 0.00 | 0.00 | 0.00 | 85 | 1014.5 |
| 20260906174018 | 75 | 174 | 6.0 | 12.0 | 0.00 | 0.00 | 0.00 | 85 | 1014.3 |
| 20260906173517 | 75 | 139 | 7.0 | 12.0 | 0.00 | 0.00 | 0.00 | 85 | 1014.6 |
| 20260906173038 | 76 | 146 | 7.0 | 13.0 | 0.00 | 0.00 | 0.00 | 84 | 1014.5 |
| 20260906172517 | 76 | 166 | 6.0 | 15.0 | 0.00 | 0.00 | 0.00 | 84 | 1014.6 |
| 20260906172019 | 76 | 133 | 10.0 | 15.0 | 0.00 | 0.00 | 0.00 | 85 | 1014.6 |
| 20260906171537 | 76 | 154 | 8.0 | 13.0 | 0.00 | 0.00 | 0.00 | 86 | 1014.6 |
| 20260906171018 | 76 | 131 | 6.0 | 12.0 | 0.00 | 0.00 | 0.00 | 86 | 1014.6 |
| 20260906170517 | 75 | 134 | 5.0 | 12.0 | 0.00 | 0.00 | 0.00 | 86 | 1014.5 |
| 20260906170038 | 75 | 129 | 6.0 | 12.0 | 0.00 | 0.00 | 0.00 | 86 | 1014.4 |
| 20260906165518 | 75 | 125 | 4.0 | 12.0 | 0.00 | 0.00 | 0.00 | 86 | 1014.4 |
| 20260906165015 | 75 | 86 | 2.0 | 9.0 | 0.00 | 0.00 | 0.00 | 86 | 1014.4 |
| 20260906164537 | 75 | 74 | 3.0 | 11.0 | 0.00 | 0.00 | 0.00 | 86 | 1014.5 |
| 20260906164018 | 75 | 120 | 2.0 | 11.0 | 0.00 | 0.00 | 0.00 | 86 | 1014.5 |
| 20260906163520 | 75 | 153 | 6.0 | 11.0 | 0.00 | 0.00 | 0.00 | 86 | 1014.6 |
| 20260906163038 | 75 | 86 | 3.0 | 10.0 | 0.00 | 0.00 | 0.00 | 87 | 1014.9 |
| 20260906162520 | 74 | 119 | 4.0 | 11.0 | 0.00 | 0.00 | 0.00 | 86 | 1015.0 |
| 20260906162019 | 74 | 130 | 5.0 | 12.0 | 0.00 | 0.00 | 0.00 | 87 | 1015.2 |
| 20260906161539 | 74 | 143 | 7.0 | 12.0 | 0.00 | 0.00 | 0.00 | 86 | 1015.2 |
| 20260906161022 | 74 | 139 | 6.0 | 12.0 | 0.00 | 0.00 | 0.00 | 86 | 1015.3 |
| 20260906160520 | 74 | 132 | 6.0 | 12.0 | 0.00 | 0.00 | 0.00 | 87 | 1015.2 |
| 20260906160051 | 74 | 127 | 6.0 | 11.0 | 0.00 | 0.00 | 0.00 | 87 | 1015.2 |
| 20260906155521 | 74 | 119 | 6.0 | 11.0 | 0.00 | 0.00 | 0.00 | 88 | 1015.2 |
| 20260906155021 | 73 | 139 | 4.0 | 9.0 | 0.00 | 0.00 | 0.00 | 88 | 1015.3 |
| 20260906154547 | 73 | 134 | 5.0 | 9.0 | 0.00 | 0.00 | 0.00 | 89 | 1015.4 |
| 20260906154022 | 73 | 139 | 4.0 | 10.0 | 0.00 | 0.00 | 0.00 | 89 | 1015.4 |
| 20260906153520 | 73 | 139 | 5.0 | 10.0 | 0.00 | 0.00 | 0.00 | 89 | 1015.4 |
| 20260906153041 | 73 | 145 | 5.0 | 11.0 | 0.00 | 0.00 | 0.00 | 89 | 1015.5 |
| 20260906152520 | 72 | 98 | 4.0 | 11.0 | 0.00 | 0.00 | 0.00 | 89 | 1015.5 |
| 20260906152017 | 72 | 120 | 5.0 | 9.0 | 0.00 | 0.00 | 0.00 | 90 | 1015.5 |
| 20260906151538 | 72 | 126 | 3.0 | 9.0 | 0.00 | 0.00 | 0.00 | 90 | 1015.5 |
| 20260906151019 | 72 | 113 | 1.0 | 7.0 | 0.00 | 0.00 | 0.00 | 90 | 1015.5 |
| 20260906150520 | 72 | 128 | 1.0 | 4.0 | 0.00 | 0.00 | 0.00 | 91 | 1015.4 |
| 20260906150042 | 71 | 132 | 1.0 | 3.0 | 0.00 | 0.00 | 0.00 | 90 | 1015.4 |
| 20260906145520 | 71 | 140 | 1.0 | 3.0 | 0.00 | 0.00 | 0.00 | 91 | 1015.4 |
| 20260906145020 | 71 | 0 | 1.0 | 3.0 | 0.00 | 0.00 | 0.00 | 91 | 1015.4 |
| 20260906144540 | 71 | 126 | 1.0 | 8.0 | 0.00 | 0.00 | 0.00 | 91 | 1015.5 |
| 20260906144019 | 71 | 128 | 2.0 | 8.0 | 0.00 | 0.00 | 0.00 | 91 | 1015.4 |
| 20260906143520 | 71 | 127 | 2.0 | 7.0 | 0.00 | 0.00 | 0.00 | 91 | 1015.4 |
| 20260906143039 | 71 | 114 | 1.0 | 8.0 | 0.00 | 0.00 | 0.00 | 92 | 1015.3 |
| 20260906142520 | 70 | 135 | 2.0 | 8.0 | 0.00 | 0.00 | 0.00 | 92 | 1015.2 |
| 20260906142020 | 70 | 135 | 3.0 | 9.0 | 0.00 | 0.00 | 0.00 | 92 | 1015.2 |
| 20260906141537 | 70 | 128 | 5.0 | 9.0 | 0.00 | 0.00 | 0.00 | 92 | 1015.2 |
| 20260906141019 | 70 | 129 | 3.0 | 8.0 | 0.00 | 0.00 | 0.00 | 92 | 1015.0 |
| 20260906140518 | 70 | 140 | 2.0 | 8.0 | 0.00 | 0.00 | 0.00 | 92 | 1015.1 |
| 20260906140038 | 70 | 126 | 3.0 | 8.0 | 0.00 | 0.00 | 0.00 | 93 | 1015.0 |
| 20260906135521 | 70 | 132 | 3.0 | 7.0 | 0.00 | 0.00 | 0.00 | 93 | 1014.8 |
| 20260906135018 | 70 | 139 | 3.0 | 7.0 | 0.00 | 0.00 | 0.00 | 93 | 1014.8 |
| 20260906134548 | 69 | 120 | 3.0 | 10.0 | 0.00 | 0.00 | 0.00 | 92 | 1015.0 |
| 20260906134017 | 69 | 146 | 3.0 | 10.0 | 0.00 | 0.00 | 0.00 | 92 | 1015.0 |
| 20260906133518 | 69 | 128 | 3.0 | 8.0 | 0.00 | 0.00 | 0.00 | 92 | 1015.0 |
| 20260906133101 | 69 | 121 | 3.0 | 11.0 | 0.00 | 0.00 | 0.00 | 92 | 1015.0 |
| 20260906132518 | 69 | 124 | 5.0 | 11.0 | 0.00 | 0.00 | 0.00 | 92 | 1014.9 |
| 20260906132022 | 69 | 134 | 5.0 | 11.0 | 0.00 | 0.00 | 0.00 | 92 | 1014.7 |
| 20260906131537 | 69 | 136 | 5.0 | 10.0 | 0.00 | 0.00 | 0.00 | 92 | 1014.9 |
| 20260906131022 | 69 | 132 | 4.0 | 10.0 | 0.00 | 0.00 | 0.00 | 92 | 1014.9 |
| 20260906130520 | 69 | 137 | 5.0 | 10.0 | 0.00 | 0.00 | 0.00 | 93 | 1014.8 |
| 20260906130039 | 69 | 128 | 3.0 | 9.0 | 0.00 | 0.00 | 0.00 | 93 | 1014.8 |
| 20260906125521 | 69 | 125 | 4.0 | 9.0 | 0.00 | 0.00 | 0.00 | 93 | 1014.6 |
| 20260906125022 | 69 | 130 | 3.0 | 8.0 | 0.00 | 0.00 | 0.00 | 93 | 1014.6 |
| 20260906124540 | 69 | 142 | 2.0 | 7.0 | 0.00 | 0.00 | 0.00 | 93 | 1014.5 |
| 20260906124021 | 69 | 145 | 2.0 | 7.0 | 0.00 | 0.00 | 0.00 | 93 | 1014.4 |
| 20260906123519 | 69 | 0 | 2.0 | 7.0 | 0.00 | 0.00 | 0.00 | 93 | 1014.4 |
| 20260906123036 | 69 | 127 | 4.0 | 7.0 | 0.00 | 0.00 | 0.00 | 93 | 1014.5 |
| 20260906122520 | 69 | 129 | 1.0 | 7.0 | 0.00 | 0.00 | 0.00 | 93 | 1014.4 |
| 20260906122020 | 69 | 109 | 2.0 | 7.0 | 0.00 | 0.00 | 0.00 | 93 | 1014.4 |
| 20260906121536 | 69 | 122 | 2.0 | 7.0 | 0.00 | 0.00 | 0.00 | 93 | 1014.3 |
| 20260906121019 | 69 | 121 | 2.0 | 9.0 | 0.00 | 0.00 | 0.00 | 93 | 1014.5 |
| 20260906120520 | 69 | 103 | 1.0 | 9.0 | 0.00 | 0.00 | 0.00 | 93 | 1014.4 |
| 20260906120041 | 69 | 140 | 2.0 | 7.0 | 0.00 | 0.00 | 0.00 | 93 | 1014.5 |
| 20260906115522 | 69 | 140 | 2.0 | 8.0 | 0.00 | 0.00 | 0.00 | 93 | 1014.5 |
| 20260906115017 | 69 | 43 | 1.0 | 8.0 | 0.00 | 0.00 | 0.00 | 93 | 1014.4 |
| 20260906114539 | 69 | 126 | 2.0 | 7.0 | 0.00 | 0.00 | 0.00 | 93 | 1014.5 |
| 20260906114018 | 69 | 77 | 1.0 | 6.0 | 0.00 | 0.00 | 0.00 | 93 | 1014.6 |
| 20260906113517 | 69 | 114 | 1.0 | 8.0 | 0.00 | 0.00 | 0.00 | 93 | 1014.6 |
| 20260906113038 | 69 | 161 | 2.0 | 8.0 | 0.00 | 0.00 | 0.00 | 93 | 1014.6 |
| 20260906112520 | 69 | 124 | 1.0 | 4.0 | 0.00 | 0.00 | 0.00 | 93 | 1014.5 |
| 20260906112020 | 69 | 0 | 1.0 | 4.0 | 0.00 | 0.00 | 0.00 | 93 | 1014.6 |
| 20260906111539 | 69 | 92 | 1.0 | 4.0 | 0.00 | 0.00 | 0.00 | 93 | 1014.5 |
| 20260906111017 | 69 | 0 | 1.0 | 5.0 | 0.00 | 0.00 | 0.00 | 93 | 1014.5 |
| 20260906110518 | 69 | 113 | 2.0 | 5.0 | 0.00 | 0.00 | 0.00 | 93 | 1014.5 |
| 20260906110038 | 69 | 88 | 0.0 | 4.0 | 0.00 | 0.00 | 0.00 | 92 | 1014.5 |
| 20260906105518 | 69 | 94 | 1.0 | 4.0 | 0.00 | 0.00 | 0.00 | 93 | 1014.7 |
| 20260906105017 | 69 | 126 | 1.0 | 4.0 | 0.00 | 0.00 | 0.00 | 92 | 1014.6 |
| 20260906104546 | 69 | 131 | 1.0 | 4.0 | 0.00 | 0.00 | 0.00 | 92 | 1014.7 |
| 20260906104018 | 69 | 130 | 1.0 | 4.0 | 0.00 | 0.00 | 0.00 | 92 | 1014.5 |
| 20260906103521 | 69 | 0 | 1.0 | 3.0 | 0.00 | 0.00 | 0.00 | 92 | 1014.6 |
| 20260906103037 | 69 | 0 | 0.0 | 4.0 | 0.00 | 0.00 | 0.00 | 92 | 1014.5 |
| 20260906102518 | 69 | 115 | 0.0 | 4.0 | 0.00 | 0.00 | 0.00 | 92 | 1014.4 |
| 20260906102018 | 69 | 140 | 2.0 | 5.0 | 0.00 | 0.00 | 0.00 | 92 | 1014.4 |
| 20260906101540 | 69 | 142 | 2.0 | 5.0 | 0.00 | 0.00 | 0.00 | 92 | 1014.5 |
| 20260906101020 | 69 | 135 | 1.0 | 3.0 | 0.00 | 0.00 | 0.00 | 92 | 1014.5 |
| 20260906100520 | 69 | 114 | 1.0 | 3.0 | 0.00 | 0.00 | 0.00 | 92 | 1014.5 |
| 20260906100041 | 69 | 0 | 0.0 | 4.0 | 0.00 | 0.00 | 0.00 | 92 | 1014.5 |
| 20260906095519 | 69 | 131 | 1.0 | 4.0 | 0.00 | 0.00 | 0.00 | 92 | 1014.4 |
| 20260906095019 | 69 | 141 | 1.0 | 4.0 | 0.00 | 0.00 | 0.00 | 92 | 1014.4 |
| 20260906094539 | 70 | 97 | 0.0 | 5.0 | 0.00 | 0.00 | 0.00 | 92 | 1014.2 |
| 20260906094018 | 70 | 133 | 2.0 | 7.0 | 0.00 | 0.00 | 0.00 | 92 | 1014.2 |
| 20260906093519 | 70 | 100 | 1.0 | 7.0 | 0.00 | 0.00 | 0.00 | 92 | 1014.3 |
| 20260906093045 | 70 | 132 | 2.0 | 7.0 | 0.00 | 0.00 | 0.00 | 92 | 1014.2 |
| 20260906092520 | 70 | 139 | 1.0 | 5.0 | 0.00 | 0.00 | 0.00 | 91 | 1014.2 |
| 20260906092023 | 70 | 123 | 3.0 | 5.0 | 0.00 | 0.00 | 0.00 | 92 | 1014.2 |
| 20260906091540 | 70 | 61 | 0.0 | 3.0 | 0.00 | 0.00 | 0.00 | 92 | 1014.1 |
| 20260906091017 | 70 | 120 | 0.0 | 3.0 | 0.00 | 0.00 | 0.00 | 91 | 1014.1 |
| 20260906090517 | 70 | 119 | 0.0 | 3.0 | 0.00 | 0.00 | 0.00 | 91 | 1014.1 |
| 20260906090041 | 70 | 113 | 0.0 | 3.0 | 0.00 | 0.00 | 0.00 | 91 | 1013.9 |
| 20260906085518 | 70 | 134 | 0.0 | 3.0 | 0.00 | 0.00 | 0.00 | 91 | 1013.8 |
| 20260906085018 | 70 | 102 | 1.0 | 4.0 | 0.00 | 0.00 | 0.00 | 91 | 1013.8 |
| 20260906084541 | 70 | 117 | 1.0 | 4.0 | 0.00 | 0.00 | 0.00 | 91 | 1013.8 |
| 20260906084020 | 70 | 0 | 0.0 | 3.0 | 0.00 | 0.00 | 0.00 | 91 | 1013.8 |
| 20260906083519 | 70 | 0 | 0.0 | 3.0 | 0.00 | 0.00 | 0.00 | 91 | 1013.7 |
| 20260906083041 | 70 | 115 | 0.0 | 4.0 | 0.00 | 0.00 | 0.00 | 91 | 1013.7 |
| 20260906082523 | 70 | 124 | 1.0 | 4.0 | 0.00 | 0.00 | 0.00 | 91 | 1013.7 |
| 20260906082020 | 70 | 0 | 0.0 | 4.0 | 0.00 | 0.00 | 0.00 | 91 | 1013.8 |
| 20260906081538 | 71 | 155 | 0.0 | 5.0 | 0.00 | 0.00 | 0.00 | 91 | 1013.7 |
| 20260906081020 | 71 | 129 | 1.0 | 5.0 | 0.00 | 0.00 | 0.00 | 90 | 1013.7 |
| 20260906080522 | 71 | 136 | 2.0 | 5.0 | 0.00 | 0.00 | 0.00 | 91 | 1013.9 |
| 20260906080042 | 71 | 120 | 0.0 | 4.0 | 0.00 | 0.00 | 0.00 | 91 | 1013.7 |
| 20260906075517 | 71 | 0 | 0.0 | 7.0 | 0.00 | 0.00 | 0.00 | 91 | 1013.6 |
| 20260906075017 | 71 | 132 | 1.0 | 7.0 | 0.00 | 0.00 | 0.00 | 91 | 1013.6 |
| 20260906074542 | 71 | 126 | 0.0 | 2.0 | 0.00 | 0.00 | 0.00 | 91 | 1013.7 |
| 20260906074021 | 71 | 107 | 0.0 | 3.0 | 0.00 | 0.00 | 0.00 | 91 | 1013.6 |
| 20260906073517 | 71 | 151 | 0.0 | 3.0 | 0.00 | 0.00 | 0.00 | 91 | 1013.7 |
| 20260906073039 | 71 | 0 | 0.0 | 3.0 | 0.00 | 0.00 | 0.00 | 91 | 1013.8 |
| 20260906072520 | 71 | 107 | 0.0 | 3.0 | 0.00 | 0.00 | 0.00 | 91 | 1013.7 |
| 20260906072021 | 71 | 0 | 0.0 | 2.0 | 0.00 | 0.00 | 0.00 | 91 | 1013.9 |
| 20260906071542 | 71 | 144 | 0.0 | 3.0 | 0.00 | 0.00 | 0.00 | 91 | 1014.0 |
| 20260906071020 | 71 | 82 | 1.0 | 3.0 | 0.00 | 0.00 | 0.00 | 91 | 1013.8 |
| 20260906070520 | 72 | 103 | 1.0 | 3.0 | 0.00 | 0.00 | 0.00 | 91 | 1013.8 |
| 20260906070040 | 72 | 114 | 1.0 | 3.0 | 0.00 | 0.00 | 0.00 | 91 | 1014.0 |
| 20260906065519 | 72 | 126 | 1.0 | 3.0 | 0.00 | 0.00 | 0.00 | 91 | 1014.0 |
| 20260906065020 | 72 | 0 | 1.0 | 3.0 | 0.00 | 0.00 | 0.00 | 91 | 1014.1 |
| 20260906064541 | 72 | 0 | 0.0 | 3.0 | 0.00 | 0.00 | 0.00 | 91 | 1014.1 |
| 20260906064018 | 72 | 108 | 0.0 | 5.0 | 0.00 | 0.00 | 0.00 | 91 | 1014.2 |
| 20260906063520 | 72 | 0 | 1.0 | 5.0 | 0.00 | 0.00 | 0.00 | 91 | 1014.2 |
| 20260906063041 | 72 | 110 | 0.0 | 4.0 | 0.00 | 0.00 | 0.00 | 91 | 1014.3 |
| 20260906062519 | 71 | 142 | 0.0 | 3.0 | 0.00 | 0.00 | 0.00 | 90 | 1014.4 |
| 20260906062020 | 72 | 135 | 0.0 | 3.0 | 0.00 | 0.00 | 0.00 | 90 | 1014.5 |
| 20260906061543 | 72 | 130 | 1.0 | 3.0 | 0.00 | 0.00 | 0.00 | 90 | 1014.5 |
| 20260906061020 | 72 | 0 | 0.0 | 2.0 | 0.00 | 0.00 | 0.00 | 89 | 1014.5 |
| 20260906060521 | 72 | 0 | 0.0 | 3.0 | 0.00 | 0.00 | 0.00 | 90 | 1014.3 |
| 20260906060037 | 72 | 135 | 1.0 | 5.0 | 0.00 | 0.00 | 0.00 | 89 | 1014.3 |
| 20260906055519 | 72 | 142 | 3.0 | 5.0 | 0.00 | 0.00 | 0.00 | 89 | 1014.2 |
| 20260906055019 | 72 | 130 | 2.0 | 4.0 | 0.00 | 0.00 | 0.00 | 89 | 1014.1 |
| 20260906054544 | 72 | 129 | 2.0 | 4.0 | 0.00 | 0.00 | 0.00 | 89 | 1014.3 |
| 20260906054018 | 72 | 128 | 1.0 | 4.0 | 0.00 | 0.00 | 0.00 | 89 | 1014.2 |
| 20260906053518 | 72 | 128 | 2.0 | 5.0 | 0.00 | 0.00 | 0.00 | 88 | 1014.2 |
| 20260906053044 | 73 | 134 | 2.0 | 6.0 | 0.00 | 0.00 | 0.00 | 88 | 1014.2 |
| 20260906052523 | 73 | 112 | 1.0 | 6.0 | 0.00 | 0.00 | 0.00 | 88 | 1014.1 |
| 20260906052020 | 73 | 126 | 0.0 | 8.0 | 0.00 | 0.00 | 0.00 | 88 | 1014.0 |
| 20260906051540 | 73 | 131 | 2.0 | 8.0 | 0.00 | 0.00 | 0.00 | 88 | 1014.0 |
| 20260906051024 | 73 | 130 | 4.0 | 8.0 | 0.00 | 0.00 | 0.00 | 89 | 1014.0 |
| 20260906050519 | 73 | 97 | 1.0 | 3.0 | 0.00 | 0.00 | 0.00 | 88 | 1014.1 |
| 20260906050046 | 73 | 103 | 1.0 | 3.0 | 0.00 | 0.00 | 0.00 | 88 | 1013.9 |
| 20260906045520 | 73 | 69 | 1.0 | 4.0 | 0.00 | 0.00 | 0.00 | 88 | 1013.8 |
| 20260906045018 | 73 | 74 | 1.0 | 4.0 | 0.00 | 0.00 | 0.00 | 87 | 1013.7 |
| 20260906044541 | 73 | 95 | 1.0 | 4.0 | 0.00 | 0.00 | 0.00 | 87 | 1013.7 |
| 20260906044021 | 74 | 96 | 1.0 | 6.0 | 0.00 | 0.00 | 0.00 | 87 | 1013.6 |
| 20260906043518 | 74 | 74 | 0.0 | 6.0 | 0.00 | 0.00 | 0.00 | 86 | 1013.7 |
| 20260906043040 | 74 | 97 | 1.0 | 3.0 | 0.00 | 0.00 | 0.00 | 86 | 1013.8 |
| 20260906042520 | 74 | 0 | 1.0 | 3.0 | 0.00 | 0.00 | 0.00 | 86 | 1014.0 |
| 20260906042020 | 74 | 125 | 1.0 | 3.0 | 0.00 | 0.00 | 0.00 | 86 | 1014.0 |
| 20260906041540 | 74 | 0 | 1.0 | 3.0 | 0.00 | 0.00 | 0.00 | 86 | 1014.0 |
| 20260906041020 | 74 | 99 | 1.0 | 3.0 | 0.00 | 0.00 | 0.00 | 86 | 1014.0 |
| 20260906040520 | 74 | 96 | 1.0 | 2.0 | 0.00 | 0.00 | 0.00 | 85 | 1014.0 |
| 20260906040041 | 74 | 96 | 0.0 | 3.0 | 0.00 | 0.00 | 0.00 | 85 | 1013.9 |
| 20260906035522 | 74 | 96 | 0.0 | 3.0 | 0.00 | 0.00 | 0.00 | 85 | 1013.9 |
| 20260906035019 | 74 | 145 | 0.0 | 3.0 | 0.00 | 0.00 | 0.00 | 85 | 1014.0 |
| 20260906034543 | 74 | 100 | 1.0 | 3.0 | 0.00 | 0.00 | 0.00 | 85 | 1014.1 |
| 20260906034020 | 75 | 76 | 0.0 | 3.0 | 0.00 | 0.00 | 0.00 | 84 | 1014.1 |
| 20260906033520 | 75 | 105 | 1.0 | 3.0 | 0.00 | 0.00 | 0.00 | 84 | 1014.1 |
| 20260906033044 | 75 | 0 | 0.0 | 2.0 | 0.00 | 0.00 | 0.00 | 85 | 1014.0 |
| 20260906032519 | 75 | 0 | 0.0 | 2.0 | 0.00 | 0.00 | 0.00 | 85 | 1014.2 |
| 20260906032020 | 75 | 0 | 0.0 | 2.0 | 0.00 | 0.00 | 0.00 | 85 | 1014.2 |
| 20260906031537 | 75 | 123 | 0.0 | 2.0 | 0.00 | 0.00 | 0.00 | 85 | 1014.2 |
| 20260906031019 | 75 | 0 | 0.0 | 2.0 | 0.00 | 0.00 | 0.00 | 87 | 1014.2 |
| 20260906030520 | 74 | 0 | 0.0 | 2.0 | 0.00 | 0.00 | 0.00 | 87 | 1014.1 |
| 20260906030040 | 73 | 109 | 0.0 | 3.0 | 0.00 | 0.00 | 0.00 | 88 | 1014.2 |
| 20260906025518 | 73 | 0 | 0.0 | 3.0 | 0.00 | 0.00 | 0.00 | 89 | 1014.1 |
| 20260906025018 | 72 | 0 | 1.0 | 3.0 | 0.00 | 0.00 | 0.00 | 89 | 1014.2 |
| 20260906024539 | 72 | 0 | 0.0 | 0.0 | 0.00 | 0.00 | 0.00 | 89 | 1014.3 |
| 20260906024018 | 72 | 0 | 0.0 | 0.0 | 0.00 | 0.00 | 0.00 | 88 | 1014.2 |
| 20260906023522 | 72 | 0 | 0.0 | 0.0 | 0.00 | 0.00 | 0.00 | 88 | 1014.2 |
| 20260906023035 | 72 | 0 | 0.0 | 0.0 | 0.00 | 0.00 | 0.00 | 88 | 1014.0 |
| 20260906022520 | 72 | 0 | 0.0 | 0.0 | 0.00 | 0.00 | 0.00 | 87 | 1013.9 |
| 20260906022020 | 72 | 0 | 0.0 | 0.0 | 0.00 | 0.00 | 0.00 | 88 | 1013.9 |
| 20260906021547 | 72 | 0 | 0.0 | 0.0 | 0.00 | 0.00 | 0.00 | 88 | 1014.0 |
| 20260906021022 | 72 | 0 | 0.0 | 0.0 | 0.00 | 0.00 | 0.00 | 86 | 1014.0 |
| 20260906020519 | 72 | 0 | 0.0 | 0.0 | 0.00 | 0.00 | 0.00 | 86 | 1014.0 |
| 20260906020049 | 73 | 0 | 0.0 | 0.0 | 0.00 | 0.00 | 0.00 | 86 | 1013.8 |
| 20260906015518 | 73 | 0 | 0.0 | 0.0 | 0.00 | 0.00 | 0.00 | 85 | 1013.6 |
| 20260906015020 | 73 | 0 | 0.0 | 0.0 | 0.00 | 0.00 | 0.00 | 84 | 1013.6 |
| 20260906014545 | 73 | 0 | 0.0 | 0.0 | 0.00 | 0.00 | 0.00 | 84 | 1013.9 |
| 20260906014019 | 74 | 0 | 0.0 | 0.0 | 0.00 | 0.00 | 0.00 | 83 | 1013.8 |
| 20260906013520 | 74 | 0 | 0.0 | 0.0 | 0.00 | 0.00 | 0.00 | 83 | 1013.8 |
| 20260906013041 | 75 | 0 | 0.0 | 0.0 | 0.00 | 0.00 | 0.00 | 82 | 1013.5 |
| 20260906012520 | 76 | 0 | 0.0 | 0.0 | 0.00 | 0.00 | 0.00 | 80 | 1013.5 |
| 20260906012020 | 76 | 0 | 0.0 | 1.0 | 0.00 | 0.00 | 0.00 | 80 | 1013.2 |
| 20260906011538 | 77 | 0 | 0.0 | 1.0 | 0.00 | 0.00 | 0.00 | 80 | 1013.1 |
| 20260906011019 | 77 | 0 | 0.0 | 0.0 | 0.00 | 0.00 | 0.00 | 78 | 1013.0 |
| 20260906010524 | 78 | 0 | 0.0 | 2.0 | 0.00 | 0.00 | 0.00 | 79 | 1012.7 |
| 20260906010038 | 78 | 0 | 0.0 | 2.0 | 0.00 | 0.00 | 0.00 | 80 | 1012.5 |
| 20260906005522 | 78 | 130 | 0.0 | 3.0 | 0.00 | 0.00 | 0.00 | 79 | 1012.3 |
| 20260906005020 | 78 | 130 | 1.0 | 3.0 | 0.00 | 0.00 | 0.00 | 77 | 1012.1 |
| 20260906004543 | 79 | 0 | 0.0 | 3.0 | 0.00 | 0.00 | 0.00 | 75 | 1012.3 |
| 20260906004024 | 79 | 130 | 1.0 | 6.0 | 0.00 | 0.00 | 0.00 | 74 | 1012.2 |
| 20260906003518 | 79 | 130 | 3.0 | 7.0 | 0.00 | 0.00 | 0.00 | 76 | 1012.0 |
| 20260906003040 | 79 | 130 | 2.0 | 8.0 | 0.00 | 0.00 | 0.00 | 75 | 1012.3 |
| 20260906002519 | 79 | 130 | 5.0 | 9.0 | 0.00 | 0.00 | 0.00 | 74 | 1012.0 |
| 20260906002019 | 80 | 126 | 6.0 | 9.0 | 0.00 | 0.00 | 0.00 | 73 | 1011.8 |
| 20260906001539 | 80 | 130 | 2.0 | 8.0 | 0.00 | 0.00 | 0.00 | 73 | 1011.7 |
| 20260906001019 | 80 | 136 | 4.0 | 8.0 | 0.00 | 0.00 | 0.00 | 73 | 1011.9 |
| 20260906000517 | 80 | 135 | 2.0 | 8.0 | 0.00 | 0.00 | 0.00 | 73 | 1011.8 |
| 20260906000041 | 80 | 140 | 4.0 | 9.0 | 0.00 | 0.00 | 0.00 | 72 | 1011.9 |
| 20260905235521 | 80 | 123 | 4.0 | 9.0 | 0.00 | 0.00 | 0.00 | 74 | 1012.1 |
| 20260905235023 | 80 | 127 | 3.0 | 7.0 | 0.00 | 0.00 | 0.00 | 72 | 1011.9 |
| 20260905234542 | 81 | 131 | 2.0 | 9.0 | 0.00 | 0.00 | 0.00 | 72 | 1012.0 |
| 20260905234020 | 81 | 130 | 1.0 | 11.0 | 0.00 | 0.00 | 0.00 | 72 | 1012.1 |
| 20260905233519 | 81 | 143 | 5.0 | 13.0 | 0.00 | 0.00 | 0.00 | 71 | 1011.9 |
| 20260905233042 | 81 | 129 | 2.0 | 13.0 | 0.00 | 0.00 | 0.00 | 71 | 1011.8 |
| 20260905232524 | 81 | 121 | 5.0 | 12.0 | 0.00 | 0.00 | 0.00 | 70 | 1011.7 |
| 20260905232020 | 81 | 128 | 3.0 | 12.0 | 0.00 | 0.00 | 0.00 | 72 | 1011.8 |
| 20260905231544 | 81 | 121 | 7.0 | 14.0 | 0.00 | 0.00 | 0.00 | 71 | 1011.8 |
| 20260905231022 | 81 | 127 | 9.0 | 14.0 | 0.00 | 0.00 | 0.00 | 72 | 1011.8 |
| 20260905230517 | 81 | 133 | 6.0 | 12.0 | 0.00 | 0.00 | 0.00 | 73 | 1011.8 |
| 20260905230056 | 81 | 123 | 4.0 | 11.0 | 0.00 | 0.00 | 0.00 | 73 | 1011.9 |
| 20260905225518 | 81 | 146 | 2.0 | 12.0 | 0.00 | 0.00 | 0.00 | 75 | 1011.9 |
| 20260905225017 | 81 | 91 | 6.0 | 12.0 | 0.00 | 0.00 | 0.00 | 74 | 1011.8 |
| 20260905224540 | 81 | 116 | 0.0 | 6.0 | 0.00 | 0.00 | 0.00 | 76 | 1012.0 |
| 20260905224020 | 81 | 133 | 2.0 | 5.0 | 0.00 | 0.00 | 0.00 | 75 | 1012.0 |
| 20260905223518 | 81 | 98 | 1.0 | 4.0 | 0.00 | 0.00 | 0.00 | 75 | 1012.2 |
| 20260905223042 | 81 | 0 | 0.0 | 5.0 | 0.00 | 0.00 | 0.00 | 76 | 1012.3 |
| 20260905222520 | 81 | 118 | 1.0 | 5.0 | 0.00 | 0.00 | 0.00 | 77 | 1012.0 |
| 20260905222023 | 81 | 110 | 1.0 | 5.0 | 0.00 | 0.00 | 0.00 | 76 | 1012.1 |
| 20260905221538 | 81 | 105 | 1.0 | 4.0 | 0.00 | 0.00 | 0.00 | 77 | 1012.0 |
| 20260905221020 | 81 | 87 | 1.0 | 3.0 | 0.00 | 0.00 | 0.00 | 76 | 1012.0 |
| 20260905220519 | 81 | 92 | 1.0 | 3.0 | 0.00 | 0.00 | 0.00 | 77 | 1012.0 |
| 20260905220041 | 81 | 84 | 1.0 | 3.0 | 0.00 | 0.00 | 0.00 | 78 | 1012.0 |
| 20260905215519 | 81 | 140 | 1.0 | 4.0 | 0.00 | 0.00 | 0.00 | 78 | 1011.9 |
| 20260905215022 | 81 | 111 | 1.0 | 5.0 | 0.00 | 0.00 | 0.00 | 79 | 1011.8 |
| 20260905214542 | 81 | 0 | 2.0 | 5.0 | 0.00 | 0.00 | 0.00 | 78 | 1011.9 |
| 20260905214019 | 81 | 105 | 2.0 | 4.0 | 0.00 | 0.00 | 0.00 | 77 | 1011.8 |
| 20260905213523 | 81 | 106 | 1.0 | 4.0 | 0.00 | 0.00 | 0.00 | 79 | 1011.7 |
| 20260905213040 | 81 | 103 | 1.0 | 4.0 | 0.00 | 0.00 | 0.00 | 79 | 1011.7 |
| 20260905212523 | 81 | 95 | 1.0 | 6.0 | 0.00 | 0.00 | 0.00 | 79 | 1011.9 |
| 20260905212019 | 81 | 84 | 2.0 | 6.0 | 0.00 | 0.00 | 0.00 | 79 | 1012.0 |
| 20260905211541 | 81 | 81 | 2.0 | 4.0 | 0.00 | 0.00 | 0.00 | 79 | 1012.0 |
| 20260905211019 | 81 | 87 | 1.0 | 4.0 | 0.00 | 0.00 | 0.00 | 80 | 1012.1 |
| 20260905210517 | 81 | 99 | 1.0 | 4.0 | 0.00 | 0.00 | 0.00 | 80 | 1012.2 |
| 20260905210039 | 80 | 85 | 1.0 | 6.0 | 0.00 | 0.00 | 0.00 | 80 | 1012.3 |
| 20260905205521 | 80 | 92 | 1.0 | 6.0 | 0.00 | 0.00 | 0.00 | 80 | 1012.4 |
| 20260905205019 | 80 | 98 | 1.0 | 4.0 | 0.00 | 0.00 | 0.00 | 80 | 1012.5 |
| 20260905204542 | 80 | 55 | 1.0 | 4.0 | 0.00 | 0.00 | 0.00 | 80 | 1012.5 |
| 20260905204017 | 80 | 57 | 1.0 | 4.0 | 0.00 | 0.00 | 0.00 | 81 | 1012.5 |
| 20260905203518 | 79 | 88 | 1.0 | 4.0 | 0.00 | 0.00 | 0.00 | 82 | 1012.5 |
| 20260905203039 | 79 | 92 | 1.0 | 4.0 | 0.00 | 0.00 | 0.00 | 83 | 1012.5 |
| 20260905202520 | 79 | 103 | 1.0 | 5.0 | 0.00 | 0.00 | 0.00 | 83 | 1012.8 |
| 20260905202020 | 79 | 92 | 1.0 | 6.0 | 0.00 | 0.00 | 0.00 | 82 | 1012.7 |
| 20260905201541 | 78 | 136 | 1.0 | 6.0 | 0.00 | 0.00 | 0.00 | 84 | 1012.8 |
| 20260905201019 | 78 | 96 | 1.0 | 5.0 | 0.00 | 0.00 | 0.00 | 84 | 1012.8 |
| 20260905200523 | 78 | 100 | 1.0 | 5.0 | 0.00 | 0.00 | 0.00 | 83 | 1012.9 |
| 20260905200041 | 78 | 83 | 1.0 | 6.0 | 0.00 | 0.00 | 0.00 | 83 | 1013.0 |
| 20260905195520 | 78 | 90 | 2.0 | 6.0 | 0.00 | 0.00 | 0.00 | 83 | 1013.0 |
| 20260905195022 | 77 | 82 | 2.0 | 4.0 | 0.00 | 0.00 | 0.00 | 83 | 1013.0 |
| 20260905194541 | 77 | 90 | 2.0 | 4.0 | 0.00 | 0.00 | 0.00 | 83 | 1013.1 |
| 20260905194019 | 77 | 99 | 1.0 | 4.0 | 0.00 | 0.00 | 0.00 | 82 | 1013.3 |
| 20260905193520 | 77 | 53 | 1.0 | 4.0 | 0.00 | 0.00 | 0.00 | 84 | 1013.2 |
| 20260905193051 | 76 | 68 | 2.0 | 4.0 | 0.00 | 0.00 | 0.00 | 85 | 1013.2 |
| 20260905192521 | 76 | 142 | 1.0 | 6.0 | 0.00 | 0.00 | 0.00 | 85 | 1013.3 |
| 20260905192017 | 76 | 90 | 2.0 | 6.0 | 0.00 | 0.00 | 0.00 | 85 | 1013.4 |
| 20260905191543 | 76 | 80 | 1.0 | 4.0 | 0.00 | 0.00 | 0.00 | 85 | 1013.4 |
| 20260905191018 | 75 | 82 | 1.0 | 4.0 | 0.00 | 0.00 | 0.00 | 86 | 1013.4 |
| 20260905190522 | 75 | 74 | 1.0 | 3.0 | 0.00 | 0.00 | 0.00 | 85 | 1013.4 |
| 20260905190039 | 75 | 50 | 1.0 | 4.0 | 0.00 | 0.00 | 0.00 | 85 | 1013.4 |
| 20260905185519 | 74 | 104 | 2.0 | 6.0 | 0.00 | 0.00 | 0.00 | 86 | 1013.4 |
| 20260905185018 | 74 | 97 | 2.0 | 6.0 | 0.00 | 0.00 | 0.00 | 86 | 1013.6 |
| 20260905184543 | 74 | 91 | 1.0 | 4.0 | 0.00 | 0.00 | 0.00 | 85 | 1013.6 |
| 20260905184020 | 74 | 131 | 1.0 | 4.0 | 0.00 | 0.00 | 0.00 | 86 | 1013.5 |
| 20260905183521 | 74 | 14 | 1.0 | 4.0 | 0.00 | 0.00 | 0.00 | 86 | 1013.5 |